Location: Ash Shall?l al Awwal
(24.0167°N, 32.8667°E)
Time: 11:19:56
(UTC+00:00)

SJ-11-01 - Pass Details

Date: 02 March 2021
Orbit: 685 x 700 km, 98.0° (Epoch: 16 April)

Event Time Altitude Azimuth Distance (km) Brightness Sun altitude
Rises 16:30:45 0° 157° (SSE) 3,035 7.4 -9.7°
Reaches altitude 10° 16:33:01 10° 152° (SSE) 2,123 6.6 -10.2°
Maximum altitude 16:37:32 53° 76° (ENE) 843 4.4 -11.2°
Drops below altitude 10° 16:42:05 10° 360° (N) 2,138 6.8 -12.3°
Sets 16:44:22 0° 356° (N) 3,059 7.7 -12.8°
